Stations météo

Publicité
Bezier-Vias, France (7638): Température de l'air & dewpoint: 11.12.2017 03:00:00 - 17.12.2017 03:00:00 (CET)Bezier-Vias, France (7638): Vitesse du vent & gusts: 11.12.2017 03:00:00 - 17.12.2017 03:00:00 (CET)Bezier-Vias, France (7638): Direction du vent: 11.12.2017 03:00:00 - 17.12.2017 03:00:00 (CET)Bezier-Vias, France (7638): reduced air pressure: 11.12.2017 03:00:00 - 17.12.2017 03:00:00 (CET)Bezier-Vias, France (7638): visibility: 11.12.2017 03:00:00 - 17.12.2017 03:00:00 (CET)Bezier-Vias, France (7638): Quantités de précipitations: 11.12.2017 03:00:00 - 17.12.2017 03:00:00 (CET)
Date & Time tt [°C] td [°C] ff [km/h] ff [knt] fx [km/h] fx [knt] dd ppp [hPa] vv [km] rr [mm]
17.12.2017 03:00:00 - - - - - - - - - -
17.12.2017 02:00:00 4,3 -2,3 16 9 28 15 NW 1024,7 10 0,0
17.12.2017 01:00:00 5,0 -2,6 15 8 32 17 NW 1024,7 60 0,0
17.12.2017 00:00:00 5,3 -3,0 22 12 41 22 NW 1024,5 60 0,0
16.12.2017 23:00:00 5,6 -1,8 30 16 41 22 NNW 1023,6 60 0,0
16.12.2017 22:00:00 5,7 -1,2 17 9 32 17 NW 1023,3 60 0,0
16.12.2017 21:00:00 6,4 -1,5 20 11 46 25 NW 1022,5 60 0,0
16.12.2017 20:00:00 4,5 -0,7 16 9 34 19 WNW 1021,9 60 0,0
16.12.2017 19:00:00 6,3 -1,4 25 13 39 21 WNW 1020,8 60 0,0
16.12.2017 18:00:00 5,8 -1,4 19 11 38 21 WNW 1020,3 60 0,0
16.12.2017 17:00:00 7,3 -1,7 27 15 57 31 NW 1019,5 59 0,0
16.12.2017 16:00:00 8,9 -1,8 29 16 47 25 NW 1018,9 31 0,0
16.12.2017 15:00:00 8,6 -1,5 21 12 51 27 WNW 1018,3 60 0,0
16.12.2017 14:00:00 9,7 0,0 31 17 53 28 W 1017,7 49 0,0
16.12.2017 13:00:00 9,3 0,2 24 13 48 26 W 1017,4 10 0,0
16.12.2017 12:00:00 9,6 -1,5 33 18 56 30 NW 1016,8 60 0,0
16.12.2017 11:00:00 9,2 -1,3 31 17 51 28 NNW 1016,6 60 0,0
16.12.2017 10:00:00 7,6 -1,1 6 3 36 20 N 1015,7 58 0,0
16.12.2017 09:00:00 6,2 -1,9 28 15 45 24 NW 1014,5 42 0,0
16.12.2017 08:00:00 5,0 -2,1 15 8 36 19 WNW 1013,4 60 0,0
16.12.2017 07:00:00 4,6 -1,4 18 10 37 20 W 1012,7 10 0,0
16.12.2017 06:00:00 4,7 -0,9 18 10 26 14 WNW 1012,3 10 0,0
16.12.2017 05:00:00 5,1 -0,3 16 9 30 16 W 1011,7 10 0,0
16.12.2017 04:00:00 5,6 -0,1 14 8 40 22 W 1011,0 60 0,0
16.12.2017 03:00:00 5,6 1,1 11 6 33 18 WNW 1010,6 60 0,0
16.12.2017 02:00:00 6,7 2,0 19 10 42 23 NNW 1010,4 60 0,0
16.12.2017 01:00:00 6,6 3,2 26 14 46 25 W 1009,4 10 0,0
16.12.2017 00:00:00 6,8 3,6 30 16 60 32 W 1009,1 60 0,0
15.12.2017 23:00:00 7,0 3,6 35 19 51 28 W 1008,6 10 0,0
15.12.2017 22:00:00 7,2 3,4 33 18 52 28 W 1008,3 60 0,0
15.12.2017 21:00:00 7,6 3,1 33 18 66 35 W 1007,5 60 0,0
15.12.2017 20:00:00 7,7 2,4 42 23 63 34 WNW 1006,6 10 0,0
15.12.2017 19:00:00 8,3 3,3 28 15 42 23 W 1006,0 60 0,0
15.12.2017 18:00:00 8,9 3,3 15 8 33 18 W 1005,7 60 0,0
15.12.2017 17:00:00 10,0 2,8 18 10 37 20 W 1005,7 60 0,0
15.12.2017 16:00:00 10,8 2,1 23 12 53 29 WNW 1005,6 29 0,0
15.12.2017 15:00:00 10,8 2,9 28 15 66 36 W 1005,3 26 0,0
15.12.2017 14:00:00 10,8 3,1 41 22 69 37 WNW 1005,1 35 0,0
15.12.2017 13:00:00 10,7 2,5 40 22 61 33 WNW 1005,3 60 0,0
15.12.2017 12:00:00 8,8 3,0 36 20 56 30 WNW 1006,4 50 0,0
15.12.2017 11:00:00 7,0 3,2 21 12 47 25 W 1007,4 59 0,0
15.12.2017 10:00:00 6,9 4,0 27 15 42 23 W 1007,4 59 0,0
15.12.2017 09:00:00 6,6 4,1 16 8 34 18 W 1007,0 60 0,6
15.12.2017 08:00:00 7,1 3,2 22 12 34 18 NNW 1006,6 10 0,0
15.12.2017 07:00:00 8,2 2,8 24 13 56 30 NNW 1006,3 60 0,0
15.12.2017 06:00:00 10,5 6,3 29 15 44 24 W 1005,0 51 0,0
15.12.2017 05:00:00 10,9 6,4 28 15 46 25 W 1004,9 52 0,0
15.12.2017 04:00:00 10,9 7,0 28 15 48 26 W 1005,5 10 0,0
15.12.2017 03:00:00 10,8 7,5 24 13 41 22 W 1006,5 10 0,0
15.12.2017 02:00:00 10,8 8,2 22 12 42 23 W 1007,1 10 0,0
15.12.2017 01:00:00 11,3 8,5 24 13 41 22 WSW 1008,0 10 0,0
15.12.2017 00:00:00 11,7 8,2 22 12 38 20 WSW 1008,6 10 0,0
14.12.2017 23:00:00 11,9 8,0 16 9 32 17 WSW 1009,0 10 0,0
14.12.2017 22:00:00 11,0 7,7 11 6 22 12 WSW 1009,4 60 0,0
14.12.2017 21:00:00 11,5 8,0 14 7 24 13 WSW 1009,9 60 0,0
14.12.2017 20:00:00 11,2 7,3 13 7 24 13 WSW 1009,9 60 0,0
14.12.2017 19:00:00 10,3 6,4 10 5 22 12 WSW 1009,9 60 0,0
14.12.2017 18:00:00 12,5 6,7 14 8 27 15 W 1010,1 60 0,0
14.12.2017 17:00:00 13,6 6,5 13 7 26 14 W 1010,9 60 0,0
14.12.2017 16:00:00 15,0 6,5 15 8 40 21 W 1011,1 10 0,0
14.12.2017 15:00:00 15,5 6,0 31 17 56 31 WNW 1011,2 23 0,0
14.12.2017 14:00:00 15,5 5,7 35 19 59 32 WNW 1011,9 10 0,0
14.12.2017 13:00:00 15,5 7,0 31 17 51 28 WNW 1012,8 38 0,0
14.12.2017 12:00:00 14,3 6,9 29 15 55 30 W 1013,8 57 0,0
14.12.2017 11:00:00 12,7 7,8 21 11 42 23 W 1014,5 10 0,0
14.12.2017 10:00:00 11,8 8,6 28 15 47 25 W 1014,3 60 0,0
14.12.2017 09:00:00 11,7 9,3 28 15 41 22 W 1014,6 10 0,0
14.12.2017 08:00:00 11,1 8,7 24 13 38 20 WSW 1014,1 10 0,0
14.12.2017 07:00:00 11,0 8,4 22 12 36 19 WSW 1013,9 60 0,0
14.12.2017 06:00:00 10,8 8,4 18 10 29 16 WSW 1013,7 10 0,0
14.12.2017 05:00:00 10,9 8,6 18 10 29 15 W 1014,0 10 0,0
14.12.2017 04:00:00 10,2 8,3 15 8 29 16 WSW 1013,8 10 0,0
14.12.2017 03:00:00 10,1 8,2 18 10 30 16 WSW 1014,1 10 0,0
14.12.2017 02:00:00 9,6 7,4 16 9 27 15 WSW 1014,2 47 0,0
14.12.2017 01:00:00 9,2 6,5 17 9 24 13 WSW 1014,9 36 0,0
14.12.2017 00:00:00 8,1 4,1 13 7 21 11 WSW 1015,5 10 0,0
13.12.2017 23:00:00 7,1 3,5 2 1 8 4 S 1016,2 13 0,0
13.12.2017 22:00:00 7,3 3,5 5 3 9 5 WSW 1016,6 16 0,0
13.12.2017 21:00:00 6,9 3,5 6 3 13 7 WNW 1017,4 27 0,0
13.12.2017 20:00:00 7,1 3,9 3 1 8 5 S 1017,4 18 0,0
13.12.2017 19:00:00 7,1 3,5 2 1 6 3 NE 1017,5 14 0,0
13.12.2017 18:00:00 7,0 2,7 2 1 6 4 N 1018,1 16 0,0
13.12.2017 17:00:00 8,7 2,9 5 3 12 7 SE 1018,4 10 0,0
13.12.2017 16:00:00 9,6 1,7 9 5 14 8 SW 1018,7 10 0,0
13.12.2017 15:00:00 10,6 0,3 9 5 17 9 SSW 1018,9 10 0,0
13.12.2017 14:00:00 9,7 -0,8 5 3 13 7 WSW 1019,8 59 0,0
13.12.2017 13:00:00 9,3 -0,9 6 4 15 8 WSW 1020,6 59 0,0
13.12.2017 12:00:00 6,6 1,1 5 3 11 6 NW 1021,4 41 0,0
13.12.2017 11:00:00 4,4 1,1 5 3 8 4 WNW 1022,4 30 0,0
13.12.2017 10:00:00 3,4 -0,1 6 4 10 5 S 1022,3 45 0,2
13.12.2017 09:00:00 -1,2 -2,2 6 3 8 4 NW 1022,6 53 0,0
13.12.2017 08:00:00 -2,2 -3,3 4 2 13 7 NW 1022,7 47 0,0
13.12.2017 07:00:00 -2,7 -4,0 9 5 11 6 WNW 1022,8 41 0,0
13.12.2017 06:00:00 -2,3 -3,4 2 1 8 5 N 1022,5 33 0,0
13.12.2017 05:00:00 -2,6 -3,9 8 4 11 6 NNW 1022,3 10 0,0
13.12.2017 04:00:00 -1,4 -2,7 5 3 10 6 - 1022,3 10 0,0
13.12.2017 03:00:00 -1,4 -3,3 5 3 21 11 W 1022,6 21 0,0
13.12.2017 02:00:00 -1,2 -2,8 10 5 15 8 WNW 1022,5 24 0,0
13.12.2017 01:00:00 0,9 -2,7 9 5 23 12 W 1022,4 41 0,0
13.12.2017 00:00:00 1,7 -1,7 11 6 22 12 N 1022,2 60 0,0
12.12.2017 23:00:00 4,0 -1,8 18 10 34 18 NW 1021,9 60 0,0
12.12.2017 22:00:00 2,1 -1,7 7 4 19 10 NNW 1021,2 60 0,0
12.12.2017 21:00:00 2,0 -1,8 4 2 19 10 SW 1020,8 52 0,0
12.12.2017 20:00:00 3,2 -0,4 13 7 21 11 W 1020,4 10 0,0
12.12.2017 19:00:00 4,5 -0,7 16 9 33 18 WNW 1019,4 60 0,0
12.12.2017 18:00:00 5,4 -0,7 13 7 27 15 NW 1018,6 10 0,0
12.12.2017 17:00:00 7,6 0,1 21 11 39 21 NNW 1017,6 60 0,0
12.12.2017 16:00:00 9,4 0,5 25 14 40 22 NNW 1016,6 60 0,0
12.12.2017 15:00:00 9,4 0,8 20 11 42 23 WNW 1016,0 58 0,0
12.12.2017 14:00:00 9,0 1,2 25 14 41 22 NNW 1015,2 59 0,0
12.12.2017 13:00:00 9,4 3,6 22 12 39 21 W 1014,8 59 0,0
12.12.2017 12:00:00 10,0 4,8 22 12 34 18 W 1014,4 58 0,0
12.12.2017 11:00:00 8,8 4,4 21 12 32 18 W 1014,0 60 0,0
12.12.2017 10:00:00 7,9 4,1 17 9 31 17 W 1013,0 51 0,0
12.12.2017 09:00:00 6,0 3,2 3 2 9 5 W 1011,9 60 0,0
12.12.2017 08:00:00 5,5 3,0 8 4 16 9 WNW 1010,7 10 0,0
12.12.2017 07:00:00 5,8 3,1 11 6 22 12 W 1009,1 60 0,0
12.12.2017 06:00:00 4,1 2,1 14 8 18 10 WNW 1007,8 60 0,0
12.12.2017 05:00:00 5,0 2,5 12 6 24 13 W 1007,2 60 0,0
12.12.2017 04:00:00 5,1 2,8 10 6 19 10 S 1006,6 60 0,0
12.12.2017 03:00:00 5,0 2,9 16 9 26 14 WNW 1005,4 60 0,0
12.12.2017 02:00:00 5,5 3,2 21 12 29 16 W 1004,5 60 0,0
12.12.2017 01:00:00 5,8 3,1 16 8 28 15 W 1003,6 60 0,0
12.12.2017 00:00:00 6,6 3,6 19 10 29 15 W 1002,4 60 0,0
11.12.2017 23:00:00 5,4 3,4 11 6 18 10 WSW 1001,3 54 0,0
11.12.2017 22:00:00 5,7 3,5 11 6 20 11 W 999,7 60 0,0
11.12.2017 21:00:00 4,9 2,9 9 5 20 11 W 998,3 10 0,0
11.12.2017 20:00:00 6,6 4,3 11 6 18 10 WSW 996,8 10 0,0
11.12.2017 19:00:00 7,3 4,9 9 5 20 11 WSW 995,6 10 0,0
11.12.2017 18:00:00 7,4 5,4 15 8 27 15 SW 994,3 60 0,0
11.12.2017 17:00:00 7,7 5,8 13 7 29 16 SW 992,7 60 0,2
11.12.2017 16:00:00 8,0 5,6 18 10 37 20 W 991,3 19 0,6
11.12.2017 15:00:00 8,7 6,7 18 10 29 16 W 990,3 10 0,8
11.12.2017 14:00:00 9,3 7,7 18 10 30 16 W 989,8 10 0,6
11.12.2017 13:00:00 10,0 9,1 7 4 23 12 NW 988,7 8 0,4
11.12.2017 12:00:00 9,9 8,2 16 9 28 15 WNW 988,2 15 0,0
11.12.2017 11:00:00 10,1 7,9 16 9 30 16 W 988,0 10 0,0
11.12.2017 10:00:00 9,4 7,7 16 8 34 18 WSW 987,5 20 0,0
11.12.2017 09:00:00 10,2 8,6 13 7 32 17 SW 986,5 20 0,0
11.12.2017 08:00:00 9,6 8,5 13 7 22 12 NW 984,4 12 0,0
11.12.2017 07:00:00 9,6 8,4 15 8 28 15 NNE 983,3 10 0,0
11.12.2017 06:00:00 9,4 8,2 22 12 30 16 NNE 983,5 10 0,0
11.12.2017 05:00:00 9,2 8,1 18 10 34 19 NNE 984,2 10 0,0
11.12.2017 04:00:00 7,7 6,9 21 11 32 17 NNE 986,0 10 0,0
11.12.2017 03:00:00 7,2 6,6 22 12 33 18 NNE 987,3 9 0,0

tt = Température de l'air
td = dewpoint
ff = Vitesse du vent
fx = gusts
dd = Direction du vent
ppp = reduced air pressure
vv = visibility
rr = Quantités de précipitations

stations d'obs. à proximité